QPF
0.00 0.00 0.00 0.00 0.00 0.00 0.00 0.00 0.00 0.00 0.00 0.00 0.00 0.00 0.00 0.00 0.00 0.00 0.00 0.00 0.00 0.00 0.00 0.00 0.00 0.00 0.00 0.00 0.00 0.00 0.00 0.00 0.00 0.00 0.00 0.00 0.00 0.00 0.00 0.00 0.00 0.00 0.00 0.00
0.00 0.00 0.00 0.00 0.00 0.00 0.00 0.00 0.00 0.00 0.00 0.00 0.00 0.00 0.00 0.00 0.00 0.00 0.00 0.00 0.00 0.00 0.00 0.00 0.00 0.00 0.00 0.00 0.00 0.00 0.00 0.00 0.00 0.00 0.00 0.00 0.00 0.00 0.00 0.00 0.00 0.00 0.00 0.00
0.00 0.00 0.00 0.00 0.00 0.00 0.00 0.00 0.00 0.00 0.00 0.00 0.00 0.00 0.00 0.00 0.00 0.00 0.00 0.00 0.00 0.00 0.00 0.00 0.00 0.00 0.00 0.00 0.00 0.00 0.00 0.00 0.00 0.00 0.00 0.00 0.00 0.00 0.00 0.00 0.00 0.00 0.00 0.00
0.00 0.00 0.00 0.00 0.00 0.00 0.00 0.00 0.00 0.00 0.00 0.00 0.00 0.00 0.00 0.00 0.00 0.00 0.00 0.00 0.00 0.00 0.00 0.00 0.00 0.00 0.00 0.00 0.00 0.00 0.00 0.00 0.00 0.00 0.00 0.00 0.00 0.00 0.00 0.00 0.00 0.00 0.00 0.00
0.00 0.00 0.00 0.00 0.00 0.00 0.00 0.00 0.00 0.00 0.00 0.00 0.00 0.00 0.00 0.00 0.00 0.00 0.00 0.00 0.00 0.00 0.00 0.00 0.00 0.00 0.00 0.00 0.00 0.00 0.00 0.00 0.00 0.00 0.00 0.00 0.00 0.00 0.00 0.00 0.00 0.00 0.00 0.00
0.00 0.00 0.00 0.00 0.00 0.00 0.00 0.00 0.00 0.00 0.00 0.00 0.00 0.00 0.00 0.00 0.00 0.00 0.00 0.00 0.00 0.00 0.00 0.00 0.00 0.00 0.00 0.00 0.00 0.00 0.00 0.00 0.00 0.00 0.00 0.00 0.00 0.00 0.00 0.00 0.00 0.00 0.00 0.00
0.00 0.00 0.00 0.00 0.00 0.00 0.00 0.00 0.00 0.00 0.00 0.00 0.00 0.00 0.00 0.00 0.00 0.00 0.00 0.00 0.00 0.00 0.00 0.00 0.00 0.00 0.00 0.00 0.00 0.00 0.00 0.00 0.00 0.00 0.00 0.00 0.00 0.00 0.00 0.00 0.00 0.00 0.00 0.00
0.00 0.00 0.00 0.00 0.00 0.00 0.00 0.00 0.00 0.00 0.00 0.00 0.00 0.00 0.00 0.00 0.00 0.00 0.00 0.00 0.00 0.00 0.00 0.00 0.00 0.00 0.00 0.00 0.00 0.00 0.00 0.00 0.00 0.00 0.00 0.00 0.00 0.00 0.00 0.00 0.00 0.00 0.00 0.00
0.00 0.00 0.00 0.00 0.00 0.00 0.00 0.00 0.00 0.00 0.00 0.00 0.00 0.00 0.00 0.00 0.00 0.00 0.00 0.00 0.00 0.00 0.00 0.00 0.00 0.00 0.00 0.00 0.00 0.00 0.00 0.00 0.00 0.00 0.00 0.00 0.00 0.00 0.00 0.00 0.00 0.00 0.00 0.00
0.00 0.00 0.00 0.00 0.00 0.00 0.00 0.00 0.00 0.00 0.00 0.00 0.00 0.00 0.00 0.00 0.00 0.00 0.00 0.00 0.00 0.00 0.00 0.00 0.00 0.00 0.00 0.00 0.00 0.00 0.00 0.00 0.00 0.00 0.00 0.00 0.00 0.00 0.00 0.00 0.00 0.00 0.00 0.00
0.00 0.00 0.00 0.00 0.00 0.00 0.00 0.00 0.00 0.00 0.00 0.00 0.00 0.00 0.00 0.00 0.00 0.00 0.00 0.00 0.00 0.00 0.00 0.00 0.00 0.00 0.00 0.00 0.00 0.00 0.00 0.00 0.00 0.00 0.00 0.00 0.00 0.00 0.00 0.00 0.00 0.00 0.00 0.00
0.00 0.00 0.00 0.00 0.00 0.00 0.00 0.00 0.00 0.00 0.00 0.00 0.00 0.00 0.00 0.00 0.00 0.00 0.00 0.00 0.00 0.00 0.00 0.00 0.00 0.00 0.00 0.00 0.00 0.00 0.00 0.00 0.00 0.00 0.00 0.00 0.00 0.00 0.00 0.00 0.00 0.00 0.00 0.00
0.00 0.00 0.00 0.00 0.00 0.00 0.00 0.00 0.00 0.00 0.00 0.00 0.00 0.00 0.00 0.00 0.00 0.00 0.00 0.00 0.00 0.00 0.00 0.00 0.00 0.00 0.00 0.00 0.00 0.00 0.00 0.00 0.00 0.00 0.00 0.00 0.00 0.00 0.00 0.00 0.00 0.00 0.00 0.00
0.00 0.00 0.00 0.00 0.00 0.00 0.00 0.00 0.00 0.00 0.00 0.00 0.00 0.00 0.00 0.00 0.00 0.00 0.00 0.00 0.00 0.00 0.00 0.00 0.00 0.00 0.00 0.00 0.00 0.00 0.00 0.00 0.00 0.00 0.00 0.00 0.00 0.00 0.00 0.00 0.00 0.00 0.00 0.00
0.00 0.00 0.00 0.00 0.00 0.00 0.00 0.00 0.00 0.00 0.00 0.00 0.00 0.00 0.00 0.00 0.00 0.00 0.00 0.00 0.00 0.00 0.00 0.00 0.00 0.00 0.00 0.00 0.00 0.00 0.00 0.00 0.00 0.00 0.00 0.00 0.00 0.00 0.00 0.00 0.00 0.00 0.00 0.00
0.00 0.00 0.00 0.00 0.00 0.00 0.00 0.00 0.00 0.00 0.00 0.00 0.00 0.00 0.00 0.00 0.00 0.00 0.00 0.00 0.00 0.00 0.00 0.00 0.00 0.00 0.00 0.00 0.00 0.00 0.00 0.00 0.00 0.00 0.00 0.00 0.00 0.00 0.00 0.00 0.00 0.00 0.00 0.00
0.00 0.00 0.00 0.00 0.00 0.00 0.00 0.00 0.00 0.00 0.00 0.00 0.00 0.00 0.00 0.00 0.00 0.00 0.00 0.00 0.00 0.00 0.00 0.00 0.00 0.00 0.00 0.00 0.00 0.00 0.00 0.00 0.00 0.00 0.00 0.00 0.00 0.00 0.00 0.00 0.00 0.00 0.00 0.00
0.00 0.00 0.00 0.00 0.00 0.00 0.00 0.00 0.00 0.00 0.00 0.00 0.00 0.00 0.00 0.00 0.00 0.00 0.00 0.00 0.00 0.00 0.00 0.00 0.00 0.00 0.00 0.00 0.00 0.00 0.00 0.00 0.00 0.00 0.00 0.00 0.00 0.00 0.00 0.00 0.00 0.00 0.00 0.00
0.00 0.00 0.00 0.00 0.00 0.00 0.00 0.00 0.00 0.00 0.00 0.00 0.00 0.00 0.00 0.00 0.00 0.00 0.00 0.00 0.00 0.00 0.00 0.00 0.00 0.00 0.00 0.00 0.00 0.00 0.00 0.00 0.00 0.00 0.00 0.00 0.00 0.00 0.00 0.00 0.00 0.00 0.00 0.00
0.00 0.00 0.00 0.00 0.00 0.00 0.00 0.00 0.00 0.00 0.00 0.00 0.00 0.00 0.00 0.00 0.00 0.00 0.00 0.00 0.00 0.00 0.00 0.00 0.00 0.00 0.00 0.00 0.00 0.00 0.00 0.00 0.00 0.00 0.00 0.00 0.00 0.00 0.00 0.00 0.00 0.00 0.00 0.00
0.00 0.00 0.00 0.00 0.00 0.00 0.00 0.00 0.00 0.00 0.00 0.00 0.00 0.00 0.00 0.00 0.00 0.00 0.00 0.00 0.00 0.00 0.00 0.00 0.00 0.00 0.00 0.00 0.00 0.00 0.00 0.00 0.00 0.00 0.00 0.00 0.00 0.00 0.00 0.00 0.00 0.00 0.00 0.00
0.00 0.00 0.00 0.00 0.00 0.00 0.00 0.00 0.00 0.00 0.00 0.00 0.00 0.00 0.00 0.00 0.00 0.00 0.00 0.00 0.00 0.00 0.00 0.00 0.00 0.00 0.00 0.00 0.00 0.00 0.00 0.00 0.00 0.00 0.00 0.00 0.00 0.00 0.00 0.00 0.00 0.00 0.00 0.00
0.00 0.00 0.00 0.00 0.00 0.00 0.00 0.00 0.00 0.00 0.00 0.00 0.00 0.00 0.00 0.00 0.00 0.00 0.00 0.00 0.00 0.00 0.00 0.00 0.00 0.00 0.00 0.00 0.00 0.00 0.00 0.00 0.00 0.00 0.00 0.00 0.00 0.00 0.00 0.00 0.00 0.00 0.00 0.00
0.00 0.00 0.00 0.00 0.00 0.00 0.00 0.00 0.00 0.00 0.00 0.00 0.00 0.00 0.00 0.00 0.00 0.00 0.00 0.00 0.00 0.00 0.00 0.00 0.00 0.00 0.00 0.00 0.00 0.00 0.00 0.00 0.00 0.00 0.00 0.00 0.00 0.00 0.00 0.00 0.00 0.00 0.00 0.00
0.00 0.00 0.00 0.00 0.00 0.00 0.00 0.00 0.00 0.00 0.00 0.00 0.00 0.00 0.00 0.00 0.00 0.00 0.00 0.00 0.00 0.00 0.00 0.00 0.00 0.00 0.00 0.00 0.00 0.00 0.00 0.00 0.00 0.00 0.00 0.00 0.00 0.00 0.00 0.00 0.00 0.00 0.00 0.00
0.00 0.00 0.00 0.00 0.00 0.00 0.00 0.00 0.00 0.00 0.00 0.00 0.00 0.00 0.00 0.00 0.00 0.00 0.00 0.00 0.00 0.00 0.00 0.00 0.00 0.00 0.00 0.00 0.00 0.00 0.00 0.00 0.00 0.00 0.00 0.00 0.00 0.00 0.00 0.00 0.00 0.00 0.00 0.00
MSLP
1016.37 1017.04 1016.76 1016.35 1016.29 1016.31 1016.56 1016.78 1016.93 1016.39 1016.35 1016.40 1016.24 1015.98 1015.02 1014.24 1014.37 1014.85 1015.39 1016.04 1016.29 1016.61 1017.17 1017.12 1017.21 1017.51 1017.88 1018.41 1018.75 1019.12 1019.57 1019.98 1020.20 1020.49 1020.62 1020.54 1020.56 1020.39 1020.18 1019.84 1019.55 1019.47 1019.36 1019.26
1016.81 1016.49 1015.98 1016.04 1016.22 1016.43 1016.72 1017.16 1017.30 1016.90 1016.88 1017.29 1017.01 1016.28 1015.11 1014.94 1015.67 1016.00 1016.57 1017.10 1017.43 1017.78 1017.82 1017.95 1018.02 1018.24 1018.48 1018.87 1019.17 1019.32 1019.64 1020.13 1020.36 1020.48 1020.68 1020.69 1020.61 1020.36 1020.08 1019.80 1019.74 1019.56 1019.49 1019.41
1016.35 1015.95 1015.84 1016.05 1016.46 1016.80 1017.15 1017.61 1017.88 1018.33 1018.17 1017.95 1018.01 1017.02 1016.35 1016.41 1016.38 1016.67 1017.17 1017.73 1018.20 1018.43 1018.57 1018.61 1018.65 1018.91 1019.11 1019.30 1019.49 1019.65 1019.89 1020.13 1020.40 1020.55 1020.68 1020.69 1020.45 1020.27 1020.19 1020.06 1019.89 1019.66 1019.52 1019.39
1016.19 1015.82 1015.90 1016.27 1016.75 1017.17 1018.02 1018.14 1018.58 1019.02 1019.57 1020.04 1019.55 1019.48 1017.60 1017.36 1017.56 1017.70 1017.87 1018.15 1018.43 1018.65 1018.75 1018.87 1018.98 1019.15 1019.28 1019.66 1019.72 1019.78 1019.98 1020.19 1020.39 1020.51 1020.67 1020.87 1020.88 1020.80 1020.58 1020.40 1020.14 1019.87 1019.73 1019.61
1016.32 1016.33 1016.40 1016.74 1017.18 1017.62 1018.46 1018.77 1019.29 1019.77 1020.80 1021.31 1020.74 1021.37 1018.27 1018.09 1018.45 1018.24 1018.30 1018.48 1018.53 1018.45 1018.51 1018.59 1018.76 1019.03 1019.34 1019.60 1019.77 1019.93 1020.08 1020.21 1020.32 1020.43 1020.64 1020.79 1021.00 1020.83 1020.54 1020.47 1020.35 1020.21 1019.88 1019.67
1016.55 1016.77 1017.04 1017.35 1017.74 1018.37 1018.98 1019.52 1020.14 1020.65 1021.36 1021.95 1021.28 1021.22 1019.17 1019.00 1019.02 1018.76 1018.82 1018.83 1018.81 1018.69 1018.55 1018.48 1018.68 1018.98 1019.29 1019.55 1019.78 1019.92 1020.06 1020.21 1020.25 1020.50 1020.66 1020.78 1020.98 1020.80 1020.67 1020.70 1020.58 1020.23 1019.86 1019.83
1017.05 1017.49 1017.88 1017.91 1018.52 1019.08 1019.58 1020.41 1021.96 1022.27 1022.62 1022.32 1021.52 1021.32 1019.23 1019.09 1019.08 1019.24 1019.54 1019.31 1018.95 1018.73 1018.62 1018.64 1018.83 1019.14 1019.39 1019.67 1019.84 1019.99 1020.16 1020.26 1020.35 1020.58 1020.69 1020.80 1020.90 1020.69 1020.79 1020.71 1020.42 1020.05 1019.93 1019.95
1017.00 1018.41 1018.39 1018.87 1019.19 1019.47 1020.04 1020.75 1021.75 1022.93 1023.65 1023.25 1022.05 1020.92 1019.20 1019.23 1019.57 1019.89 1020.03 1019.69 1019.24 1018.98 1018.92 1018.90 1019.02 1019.23 1019.50 1019.65 1019.98 1020.16 1020.34 1020.45 1020.55 1020.74 1020.82 1020.93 1020.75 1020.65 1020.56 1020.40 1020.28 1020.04 1020.09 1020.09
1016.74 1018.49 1019.29 1019.58 1019.89 1020.12 1020.64 1021.30 1021.88 1023.11 1024.69 1024.22 1022.11 1020.71 1020.00 1019.98 1020.45 1020.48 1020.46 1020.12 1019.77 1019.45 1019.18 1019.17 1019.25 1019.47 1019.71 1019.99 1020.25 1020.47 1020.63 1020.76 1020.81 1020.99 1021.07 1020.91 1020.74 1020.48 1020.47 1020.25 1020.12 1020.18 1020.16 1019.98
1016.67 1018.44 1019.67 1020.27 1020.40 1020.67 1020.85 1021.49 1022.49 1023.95 1024.92 1024.45 1022.51 1021.78 1020.66 1021.14 1021.57 1021.36 1021.09 1020.62 1020.36 1020.02 1019.67 1019.53 1019.64 1019.87 1020.02 1020.30 1020.65 1020.89 1021.05 1021.17 1021.20 1021.21 1021.10 1020.85 1020.63 1020.55 1020.24 1020.11 1020.10 1020.02 1019.89 1019.70
1016.70 1018.12 1020.62 1020.96 1020.98 1021.05 1021.71 1021.84 1022.67 1023.63 1024.14 1024.37 1024.18 1021.79 1021.05 1021.54 1021.90 1021.84 1021.37 1021.04 1020.79 1020.57 1020.24 1020.17 1020.12 1020.27 1020.46 1020.73 1021.10 1021.30 1021.42 1021.53 1021.51 1021.22 1020.96 1020.92 1020.77 1020.26 1020.07 1020.01 1019.88 1019.70 1019.53 1019.41
1016.99 1018.31 1020.38 1021.17 1021.49 1021.57 1021.45 1021.78 1022.59 1023.63 1024.26 1024.41 1024.60 1022.45 1021.39 1021.82 1021.94 1021.72 1021.45 1021.14 1021.00 1020.85 1020.77 1020.81 1020.58 1020.67 1021.06 1021.42 1021.36 1021.49 1021.64 1021.71 1021.44 1021.06 1021.07 1020.78 1020.44 1020.12 1019.93 1019.75 1019.57 1019.39 1019.23 1019.04
1017.28 1018.54 1020.78 1021.68 1022.27 1022.16 1021.94 1021.72 1022.37 1022.96 1023.35 1024.05 1024.51 1022.39 1021.80 1021.95 1021.98 1021.72 1021.63 1021.28 1021.14 1021.11 1021.13 1021.24 1021.04 1021.11 1021.04 1021.35 1021.45 1021.45 1021.48 1021.42 1021.24 1021.17 1020.81 1020.57 1020.43 1020.11 1019.75 1019.49 1019.34 1019.16 1018.96 1018.73
1017.61 1018.88 1020.12 1020.81 1021.29 1021.64 1022.48 1022.05 1022.16 1022.66 1023.55 1023.35 1022.66 1022.22 1022.31 1022.17 1022.09 1021.85 1021.72 1021.34 1021.50 1021.85 1021.50 1021.34 1021.21 1021.10 1020.97 1021.18 1021.17 1021.17 1021.21 1021.24 1020.99 1020.82 1020.70 1020.57 1020.22 1019.82 1019.43 1019.31 1019.10 1018.92 1018.67 1018.45
1018.39 1019.88 1020.78 1021.75 1022.25 1022.51 1022.52 1022.38 1022.33 1022.21 1021.86 1022.27 1022.07 1022.29 1022.08 1021.99 1021.97 1021.81 1021.67 1021.60 1021.67 1021.78 1021.78 1021.47 1021.46 1021.40 1020.98 1020.91 1020.94 1020.77 1020.66 1020.68 1020.55 1020.71 1020.56 1020.22 1019.71 1019.45 1019.19 1019.04 1018.79 1018.63 1018.44 1018.21
1019.35 1020.75 1021.70 1022.68 1023.18 1023.59 1023.52 1022.51 1022.26 1022.13 1021.93 1021.86 1021.89 1021.37 1021.54 1021.16 1021.62 1021.82 1022.01 1021.80 1021.89 1021.85 1021.80 1021.30 1021.22 1020.74 1020.39 1020.25 1020.27 1020.01 1019.89 1019.97 1020.18 1020.24 1020.04 1019.80 1019.46 1019.10 1018.93 1018.75 1018.64 1018.43 1018.30 1018.10
1019.94 1021.16 1022.70 1023.62 1023.84 1024.16 1023.93 1021.68 1021.70 1021.77 1021.50 1021.60 1022.23 1021.64 1021.83 1022.01 1021.97 1021.55 1021.52 1021.63 1021.83 1021.92 1021.49 1021.05 1020.73 1020.21 1019.74 1019.50 1019.21 1019.21 1019.00 1019.18 1019.44 1019.42 1019.21 1019.05 1018.85 1018.72 1018.47 1018.24 1018.19 1018.12 1018.08 1017.78
1020.02 1021.40 1022.61 1024.04 1024.20 1023.66 1021.39 1021.09 1021.12 1021.27 1021.39 1021.59 1021.89 1022.10 1022.06 1022.01 1021.68 1021.42 1021.36 1021.67 1021.77 1021.52 1021.19 1020.83 1020.14 1019.63 1019.15 1018.77 1018.57 1018.34 1018.29 1018.40 1018.60 1018.54 1018.36 1018.16 1018.06 1017.96 1017.75 1017.75 1017.75 1017.61 1017.46 1017.41
1019.65 1020.99 1022.68 1023.91 1024.08 1022.09 1021.02 1021.12 1021.13 1021.14 1021.12 1021.31 1021.82 1022.45 1022.06 1022.05 1021.35 1021.55 1021.34 1021.35 1021.48 1021.26 1020.81 1020.44 1019.95 1019.52 1018.92 1018.61 1018.22 1017.99 1017.83 1017.87 1017.89 1017.71 1017.47 1017.29 1017.27 1017.19 1017.12 1017.05 1017.01 1016.85 1016.86 1016.67
1020.12 1020.51 1021.94 1023.18 1023.60 1022.22 1020.47 1019.81 1019.84 1020.32 1021.42 1021.33 1021.54 1022.61 1022.41 1022.12 1022.08 1021.44 1021.15 1021.07 1020.91 1020.61 1020.43 1020.21 1019.83 1019.38 1018.93 1018.54 1018.11 1017.75 1017.51 1017.37 1017.28 1016.86 1016.50 1016.31 1016.32 1016.33 1016.29 1016.12 1016.10 1016.01 1015.97 1015.69
1020.59 1021.06 1021.59 1022.52 1022.47 1020.98 1019.27 1019.48 1019.82 1020.68 1021.70 1021.10 1021.66 1022.27 1022.37 1022.45 1021.98 1021.39 1020.91 1020.70 1020.54 1020.45 1020.32 1019.87 1019.77 1019.65 1019.09 1018.56 1018.15 1017.77 1017.38 1017.17 1016.74 1016.35 1015.99 1015.71 1015.54 1015.48 1015.34 1015.25 1015.27 1015.24 1015.26 1015.08
1020.21 1020.73 1021.30 1021.36 1021.71 1020.40 1018.55 1019.67 1020.18 1020.23 1020.58 1020.90 1021.37 1021.80 1022.03 1021.90 1021.80 1021.21 1021.01 1020.73 1020.45 1020.33 1020.23 1019.99 1019.87 1019.57 1019.14 1018.79 1018.42 1017.93 1017.51 1017.14 1016.70 1016.24 1015.73 1015.27 1014.97 1014.72 1014.50 1014.63 1014.61 1014.72 1014.75 1014.65
1019.37 1018.52 1018.84 1018.86 1018.32 1017.94 1018.16 1018.66 1019.32 1019.82 1020.14 1020.63 1021.04 1021.53 1021.43 1021.65 1021.62 1021.30 1021.10 1020.83 1020.63 1020.54 1020.41 1020.20 1020.08 1019.73 1019.40 1019.10 1018.79 1018.28 1017.75 1017.29 1016.81 1016.23 1015.55 1014.96 1014.50 1014.11 1013.94 1013.97 1013.87 1013.99 1014.00 1014.10
1018.01 1017.46 1017.69 1017.66 1017.39 1017.70 1018.13 1018.56 1019.10 1019.50 1019.89 1020.31 1020.71 1021.02 1021.28 1021.52 1021.54 1021.52 1021.36 1021.13 1021.01 1020.90 1020.62 1020.45 1020.25 1019.98 1019.66 1019.36 1019.07 1018.74 1018.10 1017.55 1016.92 1016.23 1015.49 1014.78 1014.21 1013.77 1013.58 1013.33 1013.23 1013.24 1013.17 1013.19
1016.88 1016.94 1016.84 1016.91 1017.13 1017.34 1017.71 1018.13 1018.79 1019.52 1019.88 1020.33 1020.74 1020.99 1021.37 1021.64 1021.81 1021.93 1021.81 1021.62 1021.58 1021.47 1021.20 1020.89 1020.67 1020.37 1020.08 1019.73 1019.32 1018.87 1018.32 1017.69 1016.95 1016.11 1015.38 1014.66 1014.08 1013.60 1013.16 1012.80 1012.52 1012.32 1011.98 1012.02
1015.90 1015.64 1016.08 1015.68 1015.47 1015.99 1016.81 1017.57 1018.48 1019.30 1019.93 1020.42 1020.76 1021.25 1021.72 1022.06 1022.34 1022.51 1022.44 1022.35 1022.26 1022.08 1021.79 1021.45 1021.19 1020.83 1020.48 1020.02 1019.54 1018.98 1018.47 1018.04 1017.21 1016.34 1015.57 1014.96 1014.22 1013.54 1012.94 1012.38 1011.77 1011.37 1010.98 1010.81
Thickness
5564 5550 5547 5561 5565 5573 5570 5566 5560 5564 5571 5567 5566 5560 5572 5577 5571 5563 5544 5536 5533 5532 5528 5529 5530 5526 5523 5520 5518 5516 5513 5510 5509 5508 5508 5509 5509 5511 5513 5515 5517 5517 5517 5517
5547 5541 5564 5567 5566 5564 5561 5555 5545 5557 5557 5551 5549 5556 5566 5559 5542 5533 5526 5518 5510 5507 5507 5509 5508 5507 5506 5502 5502 5502 5500 5497 5497 5497 5496 5497 5498 5501 5504 5506 5505 5506 5506 5506
5536 5559 5560 5560 5556 5552 5551 5542 5544 5536 5530 5538 5527 5530 5535 5537 5530 5523 5511 5504 5497 5491 5490 5491 5492 5490 5486 5486 5485 5486 5486 5485 5486 5486 5486 5487 5490 5492 5494 5494 5496 5497 5497 5497
5542 5549 5551 5548 5546 5538 5530 5530 5528 5524 5494 5504 5511 5483 5518 5525 5512 5504 5496 5488 5485 5482 5481 5479 5478 5476 5475 5470 5471 5472 5474 5474 5476 5477 5477 5477 5478 5480 5483 5485 5487 5488 5487 5485
5528 5531 5531 5525 5534 5527 5516 5518 5514 5513 5480 5461 5491 5445 5496 5516 5505 5502 5491 5483 5481 5479 5476 5474 5468 5466 5463 5460 5460 5461 5462 5465 5467 5469 5469 5470 5470 5473 5476 5477 5477 5475 5476 5474
5518 5521 5517 5516 5516 5512 5508 5502 5502 5492 5486 5483 5468 5465 5490 5483 5478 5495 5483 5474 5466 5462 5463 5464 5461 5458 5456 5452 5452 5453 5455 5457 5460 5461 5462 5463 5464 5466 5468 5466 5466 5466 5466 5464
5507 5502 5499 5506 5501 5503 5482 5482 5437 5482 5456 5448 5475 5464 5486 5486 5479 5471 5460 5454 5451 5452 5456 5456 5455 5447 5446 5445 5445 5447 5448 5450 5453 5454 5456 5457 5458 5460 5458 5458 5459 5460 5458 5454
5490 5480 5488 5487 5483 5479 5487 5466 5454 5437 5447 5447 5475 5443 5482 5461 5445 5432 5429 5428 5446 5448 5446 5446 5446 5443 5440 5441 5439 5441 5442 5444 5446 5448 5449 5450 5452 5453 5453 5454 5453 5452 5450 5447
5482 5476 5470 5468 5467 5474 5477 5460 5464 5442 5383 5403 5439 5473 5477 5471 5442 5435 5429 5438 5440 5439 5437 5437 5438 5436 5436 5435 5435 5436 5437 5438 5440 5441 5442 5444 5446 5448 5449 5449 5447 5445 5443 5441
5480 5465 5468 5458 5461 5461 5464 5461 5437 5404 5400 5409 5442 5444 5459 5441 5424 5430 5422 5429 5428 5429 5430 5433 5433 5432 5432 5431 5429 5429 5430 5431 5433 5435 5438 5441 5442 5444 5445 5443 5441 5440 5439 5437
5472 5460 5449 5448 5445 5439 5448 5433 5439 5428 5419 5395 5401 5440 5431 5429 5415 5413 5419 5423 5418 5419 5421 5423 5428 5428 5423 5421 5420 5422 5424 5426 5429 5432 5435 5436 5437 5441 5440 5438 5438 5437 5436 5433
5462 5442 5422 5425 5429 5435 5435 5427 5422 5399 5407 5383 5403 5429 5415 5417 5406 5402 5417 5421 5414 5415 5417 5417 5419 5417 5414 5415 5414 5417 5419 5421 5427 5430 5431 5433 5435 5437 5436 5435 5435 5434 5432 5430
5446 5445 5438 5440 5431 5427 5433 5440 5417 5403 5407 5394 5407 5426 5397 5397 5404 5409 5406 5407 5413 5417 5414 5411 5410 5411 5412 5413 5413 5415 5418 5423 5425 5425 5429 5431 5430 5431 5433 5432 5431 5430 5429 5427
5444 5432 5417 5428 5424 5403 5426 5437 5435 5424 5375 5374 5416 5404 5401 5407 5408 5408 5403 5407 5400 5399 5402 5402 5414 5413 5415 5415 5415 5417 5420 5421 5423 5425 5427 5427 5428 5428 5431 5430 5429 5427 5426 5423
5424 5401 5403 5416 5434 5409 5390 5389 5419 5434 5418 5428 5402 5395 5395 5405 5400 5401 5398 5398 5399 5400 5404 5404 5406 5406 5407 5410 5415 5416 5419 5421 5422 5422 5422 5425 5426 5425 5426 5427 5426 5423 5421 5419
5409 5395 5375 5368 5359 5353 5388 5395 5400 5425 5424 5413 5419 5430 5405 5396 5382 5392 5393 5391 5389 5387 5399 5402 5403 5406 5412 5414 5417 5419 5421 5422 5419 5419 5420 5421 5421 5422 5422 5421 5419 5417 5414 5412
5395 5383 5367 5356 5360 5369 5377 5393 5396 5394 5368 5418 5420 5418 5382 5390 5384 5387 5398 5382 5386 5390 5391 5399 5404 5409 5415 5418 5423 5422 5423 5421 5420 5420 5421 5422 5421 5421 5420 5419 5416 5414 5410 5408
5385 5381 5358 5354 5348 5358 5405 5352 5371 5396 5364 5363 5375 5370 5372 5379 5383 5383 5381 5392 5380 5390 5388 5396 5404 5411 5415 5416 5419 5423 5425 5424 5421 5421 5422 5422 5421 5420 5419 5417 5414 5412 5408 5405
5385 5375 5354 5349 5339 5389 5411 5373 5376 5395 5399 5369 5389 5360 5362 5362 5376 5381 5376 5376 5379 5380 5388 5389 5398 5401 5407 5411 5415 5417 5419 5419 5419 5420 5421 5420 5419 5418 5417 5415 5412 5410 5406 5404
5387 5380 5367 5330 5326 5339 5389 5378 5375 5374 5385 5361 5364 5353 5364 5384 5369 5378 5374 5373 5377 5377 5380 5386 5389 5393 5399 5404 5408 5413 5415 5415 5415 5419 5420 5419 5417 5416 5414 5413 5410 5408 5405 5404
5372 5367 5366 5334 5325 5359 5374 5382 5390 5389 5393 5353 5354 5349 5358 5366 5362 5356 5366 5369 5368 5369 5374 5379 5379 5382 5388 5394 5399 5403 5405 5406 5410 5412 5414 5415 5414 5412 5412 5410 5407 5404 5400 5398
5344 5328 5318 5332 5348 5356 5374 5380 5382 5372 5350 5347 5343 5344 5348 5338 5347 5349 5355 5359 5364 5364 5365 5368 5371 5375 5380 5385 5389 5393 5395 5398 5400 5403 5405 5408 5408 5408 5408 5403 5400 5396 5392 5388
5347 5358 5350 5363 5369 5367 5358 5365 5349 5343 5347 5342 5350 5343 5350 5349 5349 5351 5353 5355 5355 5355 5356 5358 5359 5363 5367 5371 5375 5379 5383 5385 5387 5391 5394 5397 5400 5401 5399 5395 5393 5389 5384 5381
5353 5363 5363 5367 5370 5357 5351 5351 5348 5344 5353 5353 5350 5347 5345 5342 5341 5340 5341 5344 5343 5344 5345 5346 5348 5350 5353 5357 5360 5363 5368 5371 5374 5378 5383 5387 5388 5390 5388 5389 5387 5383 5379 5374
5359 5359 5362 5361 5358 5356 5357 5358 5350 5341 5339 5341 5337 5336 5334 5333 5331 5328 5330 5332 5331 5331 5333 5334 5336 5338 5340 5342 5345 5349 5353 5358 5362 5367 5372 5375 5378 5377 5379 5378 5377 5375 5374 5370
5355 5358 5359 5365 5373 5374 5364 5352 5346 5341 5337 5332 5332 5327 5324 5322 5320 5318 5319 5319 5319 5320 5322 5324 5326 5327 5328 5331 5333 5336 5340 5342 5348 5353 5357 5359 5363 5366 5369 5370 5370 5369 5369 5366